www.pogodaiklimat.ru

Погода и климат >> Архив погоды >> Россия >> Якутия >> Мыс Быков


ПОГОДА на Мысе Быков

  • Прогноз погоды на Мысе Быков
  • Монитор погоды на Мысе Быков

АРХИВ ПОГОДЫ на Мысе Быков

Время (UTC), дата Ветер
(напр.,м/с)
 
Видим.   Явления Облачность Т
(С)
Тd
(С)
f
(%)
Тe
(С)
Тes
(С)
Комфортность P
(гПа)
Po
(гПа)
Тmin
(С)
Tmax
(С)
R
(мм)
R24
(мм)
S
(см)
06 17.07 С 7
{10}
20 км 10/10 600 м
[Sc]
+5.9 +2.8 80 +1 +1 1013.9 1011.9
09 17.07 С 6-10
{11}
20 км 10/10 600 м
[Sc]
+6.1 +3.7 85 +1 +1 1014.4 1012.4
12 17.07 С 9-11
{13}
4000 м слаб. морось 10/10 600 м
[Sc]
+4.3 +1.5 82 -2 -2 1016.4 1014.4 +6.1 0.0
15 17.07 СВ 10-11
{13}
4000 м слаб. морось 10/10 600 м
[Sc]
+3.5 +1.4 86 -4 -4 1017.8 1015.8
18 17.07 СВ 10-12
{14}
4000 м слаб. морось 10/10 600 м
[Sc]
+3.0 +1.2 88 -4 -4 1018.6 1016.6
21 17.07 СВ 7-10
{12}
20 км {морось} 10/10 600 м
[Sc]
+4.0 +1.4 83 -2 -2 1020.2 1018.2
00 18.07 СЗ 8-10
{12}
20 км 10/10 600 м
[Sc]
+5.7 +3.3 85 0 0 1020.4 1018.4 +5.7 0.5
03 18.07 С 10-15
{16}
4000 м слаб. морось 10/10 300 м
[Sc]
+6.3 +4.9 91 0 0 1020.0 1018.0
06 18.07 СВ 7-12
{14}
20 км {морось} 10/10 600 м
[Sc]
+4.5 +2.0 84 -1 -1 1021.6 1019.6
09 18.07 СВ 7
{10}
20 км 10/10 600 м
[Sc]
+4.3 +2.8 90 -2 -2 1022.8 1020.8
12 18.07 С 6-10
{11}
20 км 10/10 600 м
[Sc]
+4.4 +2.9 90 -1 -1 1023.9 1021.9 +6.3 0.3
15 18.07 СЗ 6
{10}
4000 м слаб. морось 10/10 600 м
[Sc]
+4.2 +3.0 92 -1 -1 1023.6 1021.6
18 18.07 СЗ 6 4000 м слаб. морось 10/10 300 м
[Sc]
+3.9 +2.7 92 -2 -2 1023.2 1021.2
21 18.07 СЗ 6 4000 м слаб. морось 10/10 300 м
[Sc]
+5.0 +3.3 89 -0 -0 1023.2 1021.2
00 19.07 СЗ 7
{10}
20 км {морось} 10/10 600 м
[Sc]
+8.0 +4.8 80 +4 +4 1023.6 1021.6 +3.9 0.0
03 19.07 СЗ 5 20 км 10/10 600 м
[Sc]
+7.0 +4.2 82 +3 +3 1024.0 1022.0
06 19.07 СВ 6 20 км 10/10 600 м
[Sc]
+7.3 +4.6 83 +3 +3 1024.2 1022.2
09 19.07 СВ 5 20 км 10/10 600 м
[Sc]
+5.9 +3.3 83 +2 +2 1024.4 1022.4
12 19.07 С 1 20 км 10/10 600 м
[Sc]
+5.4 +2.5 82 +4 +4 1024.5 1022.5 +8.5
15 19.07 ЮВ 2 20 км 10/10 600 м
[Sc]
+5.1 +2.9 86 +2 +2 1023.9 1021.9
18 19.07 В 2 4000 м слаб. морось 10/10 300 м
[St]
+4.8 +3.1 89 +2 +2 1023.4 1021.4
21 19.07 ЮЗ 4 20 км {морось} 9/3 600 м
[Sc Ac trans Ci fib]
+7.0 +4.5 84 +3 +4 1021.0 1019.0
00 20.07 З 3 20 км 5/3 600 м
[Sc Ac trans Ci fib]
+10.5 +5.3 70 +9 +12 1019.4 1017.4 +4.5 0.4
03 20.07 З 6
{10}
20 км 4/0
[Ci fib]
+16.7 +5.4 47 +16 +19 1016.3 1014.3
06 20.07 З 10-13
{14}
20 км 8/0
[Ci fib]
+19.2 +6.2 43 +19 +19 1013.2 1011.2
09 20.07 СЗ 6-12
{13}
20 км 5/0
[Ci fib]
+17.8 +9.4 58 +17 +18 1012.2 1010.2
12 20.07 В 5
{12}
20 км 6/3
[Sc Ac trans Ci fib]
+12.3 +10.4 88 +10 +10 1012.8 1010.8 +19.5
15 20.07 С 4
{10}
20 км 8/3 300 м
[Sc Ac trans Ci fib]
+8.7 +6.5 86 +6 +6 1012.8 1010.8
18 20.07 СЗ 7-10
{11}
20 км 8/0
[Ac trans Ci fib]
+7.5 +5.3 86 +3 +3 1012.3 1010.3
21 20.07 СЗ 10-11
{13}
20 км 10/10 300 м
[Sc]
+6.1 +2.7 79 0 0 1012.5 1010.5
00 21.07 СЗ 10-12
{15}
20 км 10/10 300 м
[Sc]
+7.7 +3.0 72 +3 +3 1013.5 1011.5 +6.1
03 21.07 СЗ 11-14
{16}
20 км 10/10 300 м
[Sc]
+6.2 +2.3 76 0 0 1015.3 1013.3
06 21.07 СЗ 10-14
{16}
20 км 10/10 300 м
[Sc]
+7.1 +2.3 71 +2 +2 1016.9 1014.9
09 21.07 СЗ 10-14
{16}
20 км 10/10 300 м
[Sc]
+6.4 +2.5 76 +1 +1 1019.0 1017.0
12 21.07 С 8-10
{14}
4000 м слаб. морось 10/10 300 м
[St]
+5.1 +2.9 86 -1 -1 1020.9 1018.9 +7.7 0.0
15 21.07 С 5
{11}
20 км {морось} 10/10 600 м
[Sc]
+4.3 +0.4 76 -0 -0 1022.1 1020.1
18 21.07 С 3 20 км {морось} 9/9 600 м
[Sc]
+4.4 +0.5 76 +1 +1 1023.1 1021.1
21 21.07 С 2 20 км 10/10 600 м
[Sc]
+5.2 +1.1 75 +3 +3 1023.5 1021.5
00 22.07 СВ 2 20 км 10/10 300 м
[Sc]
+5.8 +1.8 75 +4 +4 1024.0 1022.0 +5.2 0.0
03 22.07 Ю 2 4000 м слаб. морось 10/10 300 м
[St]
+6.4 +4.3 86 +4 +4 1022.3 1021.3
06 22.07 ЮВ 7
{10}
20 км {морось} 6/3 600 м
[Sc Ci fib]
+7.3 +3.8 78 +3 +4 1021.8 1019.8
09 22.07 Ю 7-11
{11}
20 км 6/3 600 м
[Sc Ac trans Ci fib]
+6.8 +3.2 78 +2 +2 1020.6 1018.6
12 22.07 Ю 6
{11}
20 км 8/0
[Ac trans Ci fib]
+7.3 +4.1 80 +3 +3 1018.5 1016.5 +7.6 0.0
15 22.07
{10}
в посл. час морось н/о +4.5 1016.4 1014.4
18 22.07 Ю 5
{10}
20 км 3/0
[Ac trans]
+7.9 +5.7 86 +4 +4 1014.1 1012.1
21 22.07 Ю 5
{10}
20 км 3/0
[Ac trans]
+8.0 +5.8 86 +4 +5 1012.6 1010.6
00 23.07 Ю 5 20 км 3/0
[Ci fib]
+13.7 +7.2 65 +12 +15 1010.0 1008.0 +8.0
03 23.07 Ю 5 20 км 6/0
[Ci fib]
+19.1 +7.3 46 +19 +23 1007.3 1005.3
06 23.07 ЮЗ 10-12
{13}
20 км в посл. час морось 6/0
[]
+21.5 +9.9 48 +23 +23 комфорт 1005.0 1003.0
09 23.07 СЗ 6
{13}
20 км 6/0
[Ac trans Ci fib]
+21.6 +12.9 58 +24 +25 комфорт 1004.7 1002.7
12 23.07 -13
{13}
20 км н/о +11.2 +9.2 87 +7 +7 1007.7 1005.7 +22.9
15 23.07 С 9-12
{13}
20 км 10/10
[Sc]
+8.6 +5.5 81 +4 +4 1009.4 1007.4
18 23.07 С 9-10
{13}
20 км 10/10 300 м
[Sc]
+5.7 +3.3 85 -0 -0 1011.0 1009.0
21 23.07 СЗ 8-10
{12}
20 км 10/10 300 м
[Sc]
+6.0 +3.4 83 +1 +1 1012.5 1010.5
00 24.07 С 1
{10}
20 км 10/10 300 м
[Sc]
+6.7 +2.6 75 +6 +6 1012.2 1010.2 +5.5
03 24.07 20 км н/о +8.0 +3.1 71 +5 +7 1010.9 1008.9

 

Местоположение метеостанции Мыс Быков (Якутия, Россия): широта 72.00 долгота 129.10 высота над уровнем моря 16 м.

В архиве по умолчанию представлена погода на Мысе Быков за последнюю неделю. Архивные данные за месяц целиком и за предыдущие месяцы, начиная с января 2011 года, Вы можете получить, выбрав интересующий диапазон дат из раскрывающегося списка и нажав кнопку "Ввод!".


*Определитесь, кто Вы:
робот инопланетянин человек

Внимание! Время в таблицах - всемирное. Для получения местного времени необходимо прибавить поправку, которая равна 9 ч.

Смотрите также архив погоды в соседних городах и на ближайших метеорологических станциях:

Погода в Тикси (Якутия, Россия) (47 км)
Погода на Столб Острове (Якутия, Россия) (105 км)
Погода в Кюсюре (Якутия, Россия) (159 км)
Погода в Тюмяти (Якутия, Россия) (193 км)
Погода в Юбилейной (Якутия, Россия) (287 км)
Погода в Усть-Куйге (Якутия, Россия) (324 км)
Погода на Усть-Оленеке (Якутия, Россия) (330 км)
Погода на Мысе Кигилях (Якутия, Россия) (384 км)
Погода в Джарджане (Якутия, Россия) (410 км)
Погода на Проливе Санникова (Якутия, Россия) (430 км)

Пояснения к столбцам:

Ветер - указаны скорость ветра в м/с - средняя за 10 мин, порывы в срок и между сроками (в фигурных скобках) и направление, откуда дует ветер: С - северный, СВ - северо-восточный, В - восточный, ЮВ - юго-восточный, Ю - южный, ЮЗ - юго-западный, З - западный, СЗ - северо-западный.
Видимость - горизонтальная дальность видимости в метрах или километрах. При видимости от 1 до 10 км при отсутствии осадков обычно наблюдается дымка, при ухудшении видимости до 1 км и менее - туман. В сухую погоду видимость может ухудшаться дымом, пылью или мглою.
Явления - указаны атмосферные явления, наблюдавшиеся в срок или в последний час перед сроком; фигурными скобками обозначены явления, наблюдавшиеся между сроками (за 1-3 часа до срока); квадратными скобками обозначены град или гололедные отложения с указанием их диаметра в мм.
Облачность - указаны через наклонную черту общая и нижняя облачность в баллах и высота нижней границы облаков в метрах; квадратными скобками обозначены формы облаков: Ci - перистые, Cs - перисто-слоистые, Cc - перисто-кучевые, Ac - высококучевые, As - высокослоистые, Sc - слоисто-кучевые, Ns - слоисто-дождевые, Cu - кучевые, Cb - кучево-дождевые. Подробнее классификацию облаков см. в Атласе облаков (PDF).
T - Температура воздуха - температура, измеренная на высоте 2 м над землей.
Td - Температура точки росы - температура, при понижении до которой содержащийся в воздухе водяной пар достигнет насыщения.
f - Относительная влажность воздуха - влажноcть воздуха, измеренная на высоте 2 м над землей.
Te - Эффективная температура - температура, которую ощущает одетый по сезону человек в тени. Характеристика душности погоды. При расчете учитывается влияние влажности воздуха и скорости ветра на теплоощущения человека.
Tes - Эффективная температура на солнце - температура, которую ощущает человек, с поправкой на солнечный нагрев. Характеристика знойности погоды. Зависит от высоты солнца над горизонтом, облачности и скорости ветра. Ночью, в пасмурную погоду, а также при ветре 12 м/с и более поправка равна нулю.
P - Атмосферное давление - приведенное к уровню моря атмосферное давление.
Po - Атмосферное давление - измеренное на уровне метеостанции атмосферное давление.
Tmin - Минимальная температура - минимум температуры воздуха на высоте 2 м над землей.
Tmax - Максимальная температура - максимум температуры воздуха на высоте 2 м над землей.
R - Количество осадков - Количество выпавших осадков за период времени, мм. При наведении курсора мыши на число - период времени, за который выпало указанное количество осадков.
R24 - Количество осадков - Количество выпавших осадков за 24 часа, мм.
S - Снежный покров - Высота снежного покрова, см. При наведении курсора мыши на число - состояние снежного покрова и степень покрытия местности в баллах.